Location: Göttingen
(51.5413°N, 9.9158°E)
Time: 18:19:03
(UTC+02:00)

Tiros 1 despin weight - Pass Details

Date: 27 May 2022
Orbit: 591 x 639 km, 48.2° (Epoch: 04 July)

Event Time Altitude Azimuth Distance (km) Brightness Sun altitude
Rises 23:09:52 0° 274° (W) 2,849 ? -11.9°
Reaches altitude 10° 23:12:16 10° 268° (W) 1,938 ? -12.1°
Maximum altitude 23:16:26 42° 198° (SSW) 859 ? -12.4°
Enters shadow 23:19:17 18° 135° (SE) 1,457 ? -12.6°
